SOMP2 (42701 NORAD) Tracking and Keplerian Element Data

This shows tracking and keplerian element data for the satellite.

Feedback or suggestion? Click here.




ElementValue
Catalog42701
NameSOMP2
Epoch Orbit10484
Epoch Day73.89422372
Epoch Year2019
RAAN29.4994
Inclination51.626
Eccentricity0.0005307
Argument of Perigee158.4924
Mean Anonmoly201.6297
Mean Motion16.15320125
Decay Rate0.00871609
L11 42701U 98067LJ 19073.89422372 .00871609 48621-3 62701-3 0 9995
L22 42701 51.6260 29.4994 0005307 158.4924 201.6297 16.15320125104841

Live tracking and technical data element details for SOMP2 (NORAD 42701). SOMP2 can be tracked NOW for your location showing map with azimuth and elevation plus other details from your city location.

Track the satellite on the map from your city or location and see movement details for azimuth, elevation, latitude, longitude, range, height, and movement on the map or in text.







IsCatalogInMostPopularTable: catalog: 42701, numindb: 191
Update: records affected: 1



GetName: 42701 SOMP2

Hit Count: updated at: Wed, 24 Apr 2019 18:02:55 GMT